SAS998 ZSPD-EKCH

Flight info

Callsign SAS998
Flight time N/A
Altitude 33000
Route LAM81D LAMEN A593 SADLI Y590 BEDAR Y591 FUE Y23 OOITA Y40 MYE V40 KTE Y33 LABEL Y121 CBE DCT ANJYO DCT TENRU Y88 DAIGO Y889 OATIS OTR3 PUTER A590 PUGGY DCT BET DCT 65N110W 67N100W 70N090W 72N080W/M085F330 DCT DAPAK DCT 75N060W 76N040W 76N020W 73N000E/N0501F330 DCT NORVA DCT TUMGU DCT LATKU L996 ERNOV
Aircraft A359/H-SABDE1E3FGHIJ1J2J3J4J5M1P2RWXYZ/LB2D1

Departure

Time 2026-05-05 21:26
Airport Shanghai Pudong International Airport (ZSPD)

Arrival

Time N/A
Airport Copenhagen Kastrup Airport (EKCH)
Time Latitude Longitude Altitude Speed Heading
2026-05-05 20:51 31.13860 121.80126 29 ft 0 kts 72°
2026-05-05 21:14 31.13856 121.80112 29 ft 4 kts 72°
2026-05-05 21:15 31.13848 121.80082 27 ft 4 kts 72°
2026-05-05 21:15 31.13841 121.80058 27 ft 4 kts 69°
2026-05-05 21:15 31.13828 121.80034 28 ft 4 kts 27°
2026-05-05 21:15 31.13805 121.80030 28 ft 3 kts 342°
2026-05-05 21:16 31.13784 121.80038 28 ft 1 kts 342°
2026-05-05 21:18 31.13792 121.80031 28 ft 4 kts 319°
2026-05-05 21:18 31.13788 121.79973 27 ft 13 kts 257°
2026-05-05 21:18 31.13755 121.79847 29 ft 14 kts 255°
2026-05-05 21:19 31.13736 121.79742 29 ft 12 kts 285°
2026-05-05 21:19 31.13804 121.79694 29 ft 12 kts 342°
2026-05-05 21:19 31.13884 121.79663 29 ft 14 kts 342°
2026-05-05 21:19 31.13986 121.79626 29 ft 17 kts 343°
2026-05-05 21:20 31.14110 121.79578 29 ft 21 kts 342°
2026-05-05 21:20 31.14250 121.79526 28 ft 21 kts 342°
2026-05-05 21:20 31.14386 121.79474 29 ft 20 kts 342°
2026-05-05 21:20 31.14520 121.79423 29 ft 20 kts 342°
2026-05-05 21:21 31.14651 121.79375 28 ft 19 kts 342°
2026-05-05 21:21 31.14777 121.79326 29 ft 19 kts 342°
2026-05-05 21:21 31.14903 121.79279 29 ft 19 kts 342°
2026-05-05 21:21 31.15027 121.79233 29 ft 19 kts 342°
2026-05-05 21:22 31.15154 121.79185 29 ft 21 kts 342°
2026-05-05 21:22 31.15300 121.79130 29 ft 22 kts 342°
2026-05-05 21:22 31.15445 121.79074 28 ft 22 kts 342°
2026-05-05 21:22 31.15587 121.79021 28 ft 21 kts 342°
2026-05-05 21:23 31.15727 121.78968 28 ft 21 kts 342°
2026-05-05 21:23 31.15863 121.78916 29 ft 20 kts 342°
2026-05-05 21:23 31.15994 121.78867 29 ft 20 kts 342°
2026-05-05 21:23 31.16084 121.78833 29 ft 6 kts 342°
2026-05-05 21:24 31.16127 121.78815 29 ft 6 kts 330°
2026-05-05 21:24 31.16146 121.78759 29 ft 12 kts 268°
2026-05-05 21:24 31.16120 121.78648 29 ft 9 kts 251°
2026-05-05 21:24 31.16088 121.78614 28 ft 4 kts 175°
2026-05-05 21:25 31.16078 121.78618 28 ft 0 kts 163°
2026-05-05 21:25 31.16018 121.78640 28 ft 33 kts 162°
2026-05-05 21:26 31.15583 121.78804 28 ft 97 kts 162°
2026-05-05 21:26 31.14752 121.79117 31 ft 152 kts 162°
2026-05-05 21:26 31.13659 121.79534 486 ft 159 kts 160°
2026-05-05 21:26 31.12621 121.79951 1147 ft 161 kts 163°
2026-05-05 21:27 31.11544 121.80319 1611 ft 162 kts 165°
2026-05-05 21:27 31.10431 121.80685 1841 ft 171 kts 165°
2026-05-05 21:27 31.09255 121.81060 2084 ft 180 kts 166°
2026-05-05 21:27 31.08007 121.81432 2354 ft 189 kts 167°
2026-05-05 21:28 31.06689 121.81795 2554 ft 202 kts 167°
2026-05-05 21:28 31.05279 121.82197 2742 ft 216 kts 166°
2026-05-05 21:28 31.03781 121.82711 2902 ft 233 kts 162°
2026-05-05 21:28 31.02198 121.83320 3181 ft 245 kts 162°
2026-05-05 21:29 31.00550 121.83925 3582 ft 251 kts 162°
2026-05-05 21:29 30.98873 121.84609 3903 ft 259 kts 158°
2026-05-05 21:29 30.97190 121.85398 4315 ft 264 kts 157°
2026-05-05 21:29 30.95474 121.86221 4752 ft 268 kts 156°
2026-05-05 21:30 30.93766 121.87033 5213 ft 270 kts 157°
2026-05-05 21:30 30.91989 121.87849 5745 ft 272 kts 160°
2026-05-05 21:30 30.90213 121.88508 6281 ft 273 kts 162°
2026-05-05 21:30 30.88404 121.89226 6758 ft 275 kts 155°
2026-05-05 21:31 30.86793 121.90441 7211 ft 279 kts 136°
2026-05-05 21:31 30.85686 121.92300 7636 ft 284 kts 110°
2026-05-05 21:31 30.85429 121.94576 8022 ft 290 kts 82°
2026-05-05 21:31 30.86038 121.96817 8491 ft 293 kts 66°
2026-05-05 21:32 30.86874 121.98994 8973 ft 296 kts 64°
2026-05-05 21:32 30.87738 122.01195 9412 ft 302 kts 64°
2026-05-05 21:32 30.88612 122.03442 9845 ft 307 kts 65°
2026-05-05 21:32 30.89489 122.05717 10263 ft 312 kts 65°
2026-05-05 21:33 30.90387 122.08065 10498 ft 324 kts 65°
2026-05-05 21:33 30.91319 122.10513 10702 ft 337 kts 65°
2026-05-05 21:33 30.92282 122.13053 10907 ft 349 kts 65°
2026-05-05 21:33 30.93275 122.15679 11124 ft 360 kts 65°
2026-05-05 21:34 30.94298 122.18392 11352 ft 371 kts 65°
2026-05-05 21:34 30.95353 122.21188 11531 ft 382 kts 65°
2026-05-05 21:34 30.96434 122.24059 11758 ft 392 kts 65°
2026-05-05 21:34 30.97541 122.27000 11945 ft 401 kts 65°
2026-05-05 21:35 30.98668 122.30000 12217 ft 407 kts 65°
2026-05-05 21:35 30.99805 122.33028 12631 ft 409 kts 65°
2026-05-05 21:35 31.00948 122.36071 13021 ft 411 kts 65°
2026-05-05 21:35 31.02095 122.39141 13399 ft 414 kts 65°
2026-05-05 21:36 31.03250 122.42224 13771 ft 416 kts 64°
2026-05-05 21:36 31.04411 122.45322 14126 ft 419 kts 64°
2026-05-05 21:36 31.05578 122.48441 14472 ft 420 kts 64°
2026-05-05 21:36 31.06748 122.51573 14832 ft 422 kts 64°
2026-05-05 21:37 31.07923 122.54719 15169 ft 424 kts 64°
2026-05-05 21:37 31.09097 122.57869 15509 ft 425 kts 64°
2026-05-05 21:37 31.10281 122.61045 15848 ft 427 kts 64°
2026-05-05 21:37 31.11466 122.64231 16171 ft 430 kts 64°
2026-05-05 21:38 31.12660 122.67448 16477 ft 432 kts 64°
2026-05-05 21:38 31.13859 122.70672 16825 ft 434 kts 64°
2026-05-05 21:38 31.15065 122.73916 17168 ft 436 kts 64°
2026-05-05 21:38 31.16271 122.77169 17511 ft 438 kts 64°
2026-05-05 21:39 31.17485 122.80443 17846 ft 440 kts 64°
2026-05-05 21:39 31.18701 122.83728 18236 ft 441 kts 64°
2026-05-05 21:39 31.19903 122.86978 18583 ft 442 kts 64°
2026-05-05 21:39 31.21122 122.90275 18882 ft 445 kts 64°
2026-05-05 21:40 31.22353 122.93609 19165 ft 447 kts 64°
2026-05-05 21:40 31.23585 122.96950 19529 ft 448 kts 64°
2026-05-05 21:40 31.24820 123.00300 19901 ft 449 kts 64°
2026-05-05 21:40 31.26056 123.03657 20250 ft 451 kts 64°
2026-05-05 21:41 31.27295 123.07028 20598 ft 452 kts 64°
2026-05-05 21:41 31.28536 123.10405 20959 ft 453 kts 64°
2026-05-05 21:41 31.29781 123.13795 21318 ft 454 kts 64°
2026-05-05 21:41 31.31028 123.17195 21642 ft 457 kts 64°
2026-05-05 21:42 31.32282 123.20620 21912 ft 459 kts 64°
2026-05-05 21:42 31.33536 123.24057 22295 ft 460 kts 64°
2026-05-05 21:42 31.34803 123.27504 22654 ft 462 kts 64°
2026-05-05 21:42 31.36065 123.30963 22997 ft 463 kts 64°
2026-05-05 21:43 31.37332 123.34437 23357 ft 465 kts 64°
2026-05-05 21:43 31.38601 123.37920 23711 ft 467 kts 64°
2026-05-05 21:43 31.39875 123.41419 23998 ft 468 kts 64°
2026-05-05 21:43 31.41153 123.44934 24279 ft 470 kts 64°
2026-05-05 21:44 31.42436 123.48466 24585 ft 472 kts 64°
2026-05-05 21:44 31.43723 123.52011 24870 ft 474 kts 64°
2026-05-05 21:44 31.45012 123.55565 25236 ft 473 kts 64°
2026-05-05 21:44 31.46298 123.59114 25592 ft 474 kts 64°
2026-05-05 21:45 31.47587 123.62675 25868 ft 476 kts 64°
2026-05-05 21:45 31.48879 123.66251 26145 ft 478 kts 64°
2026-05-05 21:45 31.50179 123.69849 26410 ft 481 kts 64°
2026-05-05 21:45 31.51489 123.73478 26539 ft 486 kts 64°
2026-05-05 21:46 31.52806 123.77135 26825 ft 487 kts 64°
2026-05-05 21:46 31.54123 123.80794 27124 ft 488 kts 64°
2026-05-05 21:46 31.55444 123.84469 27390 ft 490 kts 64°
2026-05-05 21:46 31.56767 123.88152 27655 ft 491 kts 64°
2026-05-05 21:47 31.58095 123.91853 27895 ft 493 kts 64°
2026-05-05 21:47 31.59426 123.95568 28143 ft 495 kts 64°
2026-05-05 21:47 31.61777 124.03255 28373 ft 506 kts 71°
2026-05-05 21:48 31.62719 124.07233 28644 ft 507 kts 72°
2026-05-05 21:48 31.63613 124.11242 28867 ft 508 kts 73°
2026-05-05 21:48 31.64485 124.15253 29189 ft 507 kts 73°
2026-05-05 21:48 31.65353 124.19258 29540 ft 506 kts 73°
2026-05-05 21:49 31.66224 124.23256 29821 ft 506 kts 73°
2026-05-05 21:49 31.67104 124.27291 29739 ft 514 kts 73°
2026-05-05 21:49 31.67997 124.31349 30096 ft 510 kts 73°
2026-05-05 21:49 31.68883 124.35348 30628 ft 504 kts 73°
2026-05-05 21:50 31.69766 124.39327 30805 ft 505 kts 73°
2026-05-05 21:50 31.70652 124.43324 30956 ft 506 kts 73°
2026-05-05 21:50 31.71536 124.47328 31148 ft 506 kts 73°
2026-05-05 21:50 31.72419 124.51350 31109 ft 513 kts 74°
2026-05-05 21:51 31.74203 124.59525 31350 ft 516 kts 74°
2026-05-05 21:51 31.75088 124.63552 31575 ft 516 kts 74°
2026-05-05 21:51 31.75996 124.67686 31738 ft 516 kts 74°
2026-05-05 21:52 31.77768 124.75792 32194 ft 515 kts 75°
2026-05-05 21:52 31.78661 124.79891 32066 ft 522 kts 75°
2026-05-05 21:52 31.79568 124.84032 32183 ft 523 kts 75°
2026-05-05 21:53 31.80467 124.88168 32420 ft 522 kts 75°
2026-05-05 21:53 31.81360 124.92303 32587 ft 522 kts 75°
2026-05-05 21:53 31.82139 124.96473 32715 ft 523 kts 81°
2026-05-05 21:53 31.82432 125.00728 32818 ft 523 kts 91°
2026-05-05 21:54 31.82156 125.05001 32676 ft 527 kts 100°
2026-05-05 21:54 31.80915 125.13490 32985 ft 526 kts 103°
2026-05-05 21:55 31.79483 125.21947 33095 ft 530 kts 103°
2026-05-05 21:55 31.78043 125.30470 33094 ft 534 kts 105°
2026-05-05 21:56 31.76622 125.39052 33097 ft 536 kts 104°
2026-05-05 21:56 31.75190 125.47641 33100 ft 535 kts 104°
2026-05-05 21:57 31.73757 125.56220 33100 ft 536 kts 105°
2026-05-05 21:57 31.72682 125.64847 33104 ft 543 kts 94°
2026-05-05 21:57 31.72912 125.69285 33101 ft 546 kts 83°
2026-05-05 21:58 31.73659 125.73665 33094 ft 548 kts 79°
2026-05-05 21:58 31.75517 125.82378 33105 ft 552 kts 78°
2026-05-05 21:59 31.77510 125.91146 33105 ft 558 kts 77°
2026-05-05 21:59 31.79179 125.98537 33107 ft 558 kts 78°
2026-05-05 22:00 31.81123 126.07357 33111 ft 555 kts 78°
2026-05-05 22:00 31.83010 126.16122 33114 ft 552 kts 77°
2026-05-05 22:01 31.84915 126.24860 33104 ft 552 kts 77°
2026-05-05 22:01 31.86798 126.33628 33112 ft 555 kts 78°
2026-05-05 22:02 31.88713 126.42488 33111 ft 561 kts 78°
2026-05-05 22:02 31.90630 126.51359 33092 ft 556 kts 79°
2026-05-05 22:03 31.92495 126.60159 33114 ft 561 kts 79°
2026-05-05 22:03 31.94504 126.69090 33113 ft 567 kts 78°
2026-05-05 22:04 31.96519 126.78054 33112 ft 567 kts 80°
2026-05-05 22:04 31.98509 126.87079 33124 ft 571 kts 78°
2026-05-05 22:05 32.00491 126.96102 33119 ft 567 kts 79°
2026-05-05 22:05 32.02393 127.05118 33120 ft 568 kts 80°
2026-05-05 22:06 32.04716 127.14084 33125 ft 579 kts 70°
2026-05-05 22:06 32.07910 127.22827 33134 ft 581 kts 68°
2026-05-05 22:07 32.11220 127.31495 33123 ft 583 kts 68°
2026-05-05 22:07 32.14555 127.40264 33124 ft 585 kts 68°
2026-05-05 22:08 32.17858 127.49049 33103 ft 585 kts 69°
2026-05-05 22:08 32.21180 127.57851 33126 ft 588 kts 68°
2026-05-05 22:09 32.24455 127.66692 33129 ft 586 kts 69°
2026-05-05 22:09 32.27736 127.75512 33125 ft 587 kts 69°
2026-05-05 22:10 32.31040 127.84395 33137 ft 594 kts 69°
2026-05-05 22:10 32.34327 127.93343 33129 ft 592 kts 69°
2026-05-05 22:11 32.37595 128.02229 33131 ft 595 kts 70°
2026-05-05 22:11 32.40915 128.11265 33131 ft 601 kts 70°
2026-05-05 22:12 32.44247 128.20339 33108 ft 601 kts 71°
2026-05-05 22:12 32.47578 128.29437 33134 ft 604 kts 71°
2026-05-05 22:13 32.50910 128.38567 33131 ft 604 kts 71°
2026-05-05 22:13 32.54214 128.47700 33129 ft 601 kts 70°
2026-05-05 22:14 32.57453 128.56830 33133 ft 601 kts 70°
2026-05-05 22:14 32.60789 128.65923 33117 ft 601 kts 70°
2026-05-05 22:15 32.64147 128.75042 33137 ft 606 kts 70°
2026-05-05 22:15 32.67138 128.84353 33148 ft 600 kts 79°
2026-05-05 22:16 32.69247 128.93905 33138 ft 599 kts 81°
2026-05-05 22:16 32.71202 129.03516 33168 ft 599 kts 82°
2026-05-05 22:17 32.73132 129.13132 33116 ft 598 kts 82°
2026-05-05 22:17 32.75078 129.22769 33138 ft 601 kts 82°
2026-05-05 22:18 32.77021 129.32367 33133 ft 602 kts 82°
2026-05-05 22:18 32.78986 129.42103 33137 ft 603 kts 82°
2026-05-05 22:19 32.80935 129.51811 33133 ft 604 kts 82°
2026-05-05 22:19 32.82864 129.61454 33126 ft 604 kts 83°
2026-05-05 22:20 32.84800 129.71188 33127 ft 605 kts 83°
2026-05-05 22:20 32.86707 129.80924 33105 ft 605 kts 83°
2026-05-05 22:21 32.88598 129.90681 33128 ft 606 kts 83°
2026-05-05 22:21 32.90487 130.00451 33131 ft 606 kts 83°
2026-05-05 22:22 32.92369 130.10219 33129 ft 605 kts 83°
2026-05-05 22:22 32.94246 130.19988 33132 ft 606 kts 83°
2026-05-05 22:23 32.96117 130.29780 33131 ft 607 kts 83°
2026-05-05 22:23 32.97982 130.39580 33137 ft 606 kts 83°
2026-05-05 22:24 32.99837 130.49377 33131 ft 606 kts 83°
2026-05-05 22:24 33.01687 130.59193 33138 ft 607 kts 83°
2026-05-05 22:25 33.03529 130.69009 33136 ft 607 kts 83°
2026-05-05 22:25 33.05364 130.78837 33144 ft 607 kts 83°
2026-05-05 22:26 33.07191 130.88670 33142 ft 609 kts 83°
2026-05-05 22:26 33.09004 130.98529 33147 ft 607 kts 83°
2026-05-05 22:27 33.10816 131.08338 33150 ft 605 kts 83°
2026-05-05 22:27 33.12618 131.18136 33169 ft 604 kts 83°
2026-05-05 22:28 33.14408 131.27931 33161 ft 605 kts 83°
2026-05-05 22:28 33.16193 131.37741 33168 ft 605 kts 83°
2026-05-05 22:29 33.17975 131.47525 33165 ft 602 kts 83°
2026-05-05 22:29 33.19713 131.57228 33153 ft 602 kts 83°
2026-05-05 22:30 33.21581 131.66962 33161 ft 605 kts 76°
2026-05-05 22:30 33.23195 131.71618 33164 ft 610 kts 64°
2026-05-05 22:30 33.25391 131.75956 33162 ft 611 kts 58°
2026-05-05 22:31 33.30195 131.84353 33163 ft 613 kts 54°
2026-05-05 22:31 33.35176 131.92632 33161 ft 614 kts 54°
2026-05-05 22:32 33.40148 132.00940 33163 ft 614 kts 54°
2026-05-05 22:32 33.45081 132.09300 33167 ft 615 kts 55°
2026-05-05 22:33 33.50078 132.17608 33172 ft 615 kts 52°
2026-05-05 22:33 33.55320 132.25712 33177 ft 615 kts 51°
2026-05-05 22:34 33.60575 132.33792 33180 ft 614 kts 51°
2026-05-05 22:34 33.65782 132.41926 33160 ft 616 kts 52°
2026-05-05 22:35 33.70964 132.50103 33184 ft 614 kts 52°
2026-05-05 22:35 33.76128 132.58279 33185 ft 615 kts 52°
2026-05-05 22:36 33.81249 132.66519 33165 ft 615 kts 57°
2026-05-05 22:36 33.83285 132.71023 33186 ft 611 kts 69°
2026-05-05 22:36 33.84842 132.75766 33209 ft 609 kts 72°
2026-05-05 22:37 33.87631 132.85408 33181 ft 611 kts 75°
2026-05-05 22:37 33.90253 132.95138 33194 ft 611 kts 75°
2026-05-05 22:38 33.92853 133.04797 33204 ft 611 kts 75°
2026-05-05 22:38 33.95509 133.14542 33204 ft 613 kts 75°
2026-05-05 22:39 33.98184 133.24300 33175 ft 613 kts 75°
2026-05-05 22:39 34.00843 133.34038 33203 ft 612 kts 75°
2026-05-05 22:40 34.03496 133.43809 33194 ft 614 kts 75°
2026-05-05 22:40 34.06255 133.53544 33201 ft 614 kts 72°
2026-05-05 22:41 34.09257 133.63193 33185 ft 616 kts 71°
2026-05-05 22:41 34.12273 133.72862 33206 ft 615 kts 71°
2026-05-05 22:42 34.15230 133.82539 33211 ft 614 kts 72°
2026-05-05 22:42 34.18152 133.92217 33212 ft 612 kts 71°
2026-05-05 22:43 34.21030 134.01885 33215 ft 610 kts 77°
2026-05-05 22:43 34.23209 134.11781 33212 ft 610 kts 79°
2026-05-05 22:44 34.25232 134.21740 33213 ft 611 kts 79°
2026-05-05 22:44 34.27206 134.31727 33204 ft 610 kts 79°
2026-05-05 22:45 34.29176 134.41688 33211 ft 611 kts 79°
2026-05-05 22:45 34.31162 134.51720 33211 ft 612 kts 79°
2026-05-05 22:46 34.33142 134.61734 33181 ft 612 kts 79°
2026-05-05 22:46 34.34779 134.70049 33216 ft 611 kts 79°
2026-05-05 22:47 34.37058 134.81688 33223 ft 612 kts 79°
2026-05-05 22:47 34.38685 134.90089 33217 ft 611 kts 80°
2026-05-05 22:48 34.40371 135.00171 33186 ft 612 kts 83°
2026-05-05 22:48 34.41917 135.10232 33213 ft 612 kts 83°
2026-05-05 22:49 34.43504 135.20362 33207 ft 611 kts 83°
2026-05-05 22:49 34.45114 135.30431 33214 ft 608 kts 82°
2026-05-05 22:50 34.46722 135.40488 33221 ft 608 kts 82°
2026-05-05 22:50 34.48321 135.50554 33222 ft 608 kts 82°
2026-05-05 22:51 34.49909 135.60628 33225 ft 609 kts 82°
2026-05-05 22:51 34.51492 135.70717 33227 ft 609 kts 82°
2026-05-05 22:52 34.53066 135.80808 33223 ft 609 kts 83°
2026-05-05 22:52 34.54623 135.90883 33226 ft 607 kts 83°
2026-05-05 22:53 34.56177 136.00953 33231 ft 607 kts 83°
2026-05-05 22:53 34.57717 136.11028 33238 ft 607 kts 83°
2026-05-05 22:54 34.60135 136.20847 33249 ft 610 kts 64°
2026-05-05 22:54 34.63902 136.30092 33247 ft 610 kts 62°
2026-05-05 22:55 34.67935 136.39178 33261 ft 612 kts 60°
2026-05-05 22:55 34.71985 136.48303 33245 ft 613 kts 61°
2026-05-05 22:56 34.75971 136.57471 33246 ft 613 kts 61°
2026-05-05 22:56 34.79938 136.66664 33239 ft 614 kts 61°
2026-05-05 22:57 34.83906 136.75870 33236 ft 614 kts 61°
2026-05-05 22:57 34.87883 136.84998 33239 ft 614 kts 59°
2026-05-05 22:58 34.92159 136.93988 33244 ft 614 kts 57°
2026-05-05 22:58 34.96506 137.02946 33249 ft 614 kts 57°
2026-05-05 22:59 35.01196 137.11587 33252 ft 607 kts 45°
2026-05-05 22:59 35.06733 137.19343 33249 ft 606 kts 43°
2026-05-05 23:00 35.15273 137.30717 33261 ft 606 kts 42°
2026-05-05 23:00 35.20969 137.38302 33259 ft 606 kts 42°
2026-05-05 23:01 35.26654 137.45931 33269 ft 607 kts 42°
2026-05-05 23:01 35.32332 137.53580 33267 ft 607 kts 42°
2026-05-05 23:02 35.38016 137.61262 33287 ft 608 kts 43°
2026-05-05 23:02 35.43681 137.68959 33294 ft 608 kts 43°
2026-05-05 23:03 35.49345 137.76683 33292 ft 609 kts 43°
2026-05-05 23:03 35.55024 137.84384 33286 ft 608 kts 42°
2026-05-05 23:04 35.60696 137.92091 33293 ft 608 kts 43°
2026-05-05 23:04 35.66203 137.99995 33267 ft 613 kts 52°
2026-05-05 23:05 35.70328 138.09228 33306 ft 617 kts 62°
2026-05-05 23:05 35.74013 138.18764 33288 ft 617 kts 63°
2026-05-05 23:06 35.77642 138.28356 33288 ft 617 kts 64°
2026-05-05 23:06 35.81298 138.37874 33307 ft 620 kts 63°
2026-05-05 23:07 35.84985 138.47465 33306 ft 618 kts 63°
2026-05-05 23:07 35.88642 138.57044 33313 ft 617 kts 63°
2026-05-05 23:08 35.92275 138.66633 33330 ft 617 kts 63°
2026-05-05 23:08 35.95889 138.76239 33304 ft 617 kts 63°
2026-05-05 23:09 35.99513 138.85856 33328 ft 619 kts 63°
2026-05-05 23:09 36.03133 138.95489 33311 ft 618 kts 63°
2026-05-05 23:10 36.06738 139.05133 33311 ft 618 kts 63°
2026-05-05 23:10 36.10363 139.14777 33321 ft 618 kts 63°
2026-05-05 23:11 36.13953 139.24441 33314 ft 618 kts 63°
2026-05-05 23:11 36.18054 139.33703 33316 ft 611 kts 52°
2026-05-05 23:12 36.22925 139.42316 33314 ft 610 kts 49°
2026-05-05 23:12 36.27930 139.50800 33315 ft 610 kts 49°
2026-05-05 23:13 36.32948 139.59290 33306 ft 610 kts 49°
2026-05-05 23:13 36.37934 139.67800 33304 ft 610 kts 49°
2026-05-05 23:14 36.42911 139.76332 33315 ft 610 kts 49°
2026-05-05 23:14 36.47917 139.84870 33294 ft 612 kts 49°
2026-05-05 23:15 36.52816 139.93552 33287 ft 615 kts 52°
2026-05-05 23:15 36.57464 140.02480 33284 ft 615 kts 53°
2026-05-05 23:16 36.62092 140.11444 33280 ft 615 kts 53°
2026-05-05 23:16 36.66766 140.20369 33272 ft 615 kts 53°
2026-05-05 23:17 36.71462 140.29278 33265 ft 615 kts 52°
2026-05-05 23:17 36.75641 140.38497 33275 ft 616 kts 61°
2026-05-05 23:18 36.79191 140.48244 33268 ft 618 kts 64°
2026-05-05 23:18 36.82666 140.58066 33270 ft 619 kts 64°
2026-05-05 23:19 36.86126 140.67899 33277 ft 619 kts 64°
2026-05-05 23:19 36.89578 140.77719 33266 ft 617 kts 64°
2026-05-05 23:20 36.93029 140.87545 33266 ft 617 kts 64°
2026-05-05 23:20 36.96464 140.97366 33260 ft 616 kts 64°
2026-05-05 23:21 36.99892 141.07192 33258 ft 616 kts 65°
2026-05-05 23:21 37.03303 141.17020 33262 ft 616 kts 65°
2026-05-05 23:22 37.06706 141.26854 33263 ft 615 kts 65°
2026-05-05 23:22 37.10100 141.36690 33273 ft 615 kts 65°
2026-05-05 23:23 37.13479 141.46516 33263 ft 613 kts 65°
2026-05-05 23:23 37.16844 141.56331 33267 ft 613 kts 65°
2026-05-05 23:24 37.20202 141.66159 33269 ft 613 kts 65°
2026-05-05 23:24 37.23550 141.75992 33269 ft 613 kts 65°
2026-05-05 23:25 37.26888 141.85828 33261 ft 612 kts 65°
2026-05-05 23:25 37.30207 141.95641 33272 ft 610 kts 65°
2026-05-05 23:26 37.33511 142.05439 33266 ft 609 kts 65°
2026-05-05 23:26 37.36807 142.15247 33278 ft 609 kts 65°
2026-05-05 23:27 37.40090 142.25049 33285 ft 608 kts 65°
2026-05-05 23:27 37.43364 142.34858 33273 ft 607 kts 66°
2026-05-05 23:28 37.46624 142.44660 33277 ft 607 kts 66°
2026-05-05 23:28 37.49820 142.54495 33287 ft 609 kts 66°
2026-05-05 23:29 37.53094 142.64366 33281 ft 610 kts 65°
2026-05-05 23:29 37.56375 142.74212 33286 ft 610 kts 66°
2026-05-05 23:30 37.59044 142.82439 33285 ft 609 kts 66°
2026-05-05 23:30 37.62711 142.93947 33290 ft 609 kts 66°
2026-05-05 23:31 37.65862 143.03868 33286 ft 608 kts 66°
2026-05-05 23:31 37.69005 143.13767 33290 ft 607 kts 66°
2026-05-05 23:32 37.72142 143.23657 33289 ft 607 kts 66°
2026-05-05 23:32 37.75263 143.33554 33295 ft 605 kts 67°
2026-05-05 23:33 37.78364 143.43428 33299 ft 604 kts 67°
2026-05-05 23:33 37.81456 143.53301 33300 ft 604 kts 67°
2026-05-05 23:34 37.84361 143.63250 33297 ft 602 kts 70°
2026-05-05 23:34 37.86545 143.71615 33306 ft 602 kts 71°
2026-05-05 23:35 37.89154 143.81682 33300 ft 601 kts 71°
2026-05-05 23:35 37.92240 143.93344 33301 ft 601 kts 70°
2026-05-05 23:36 37.94916 144.03372 33301 ft 601 kts 70°
2026-05-05 23:36 37.97154 144.11782 33304 ft 601 kts 70°
2026-05-05 23:37 37.99797 144.21765 33300 ft 601 kts 71°
2026-05-05 23:37 38.02444 144.31815 33300 ft 601 kts 71°
2026-05-05 23:38 38.05078 144.41860 33306 ft 600 kts 71°
2026-05-05 23:38 38.07705 144.51915 33310 ft 600 kts 71°
2026-05-05 23:39 38.10318 144.61954 33305 ft 598 kts 71°
2026-05-05 23:39 38.12916 144.71978 33311 ft 598 kts 71°
2026-05-05 23:40 38.15504 144.82000 33310 ft 596 kts 71°
2026-05-05 23:40 38.18074 144.91996 33310 ft 595 kts 71°
2026-05-05 23:41 38.20635 145.01989 33318 ft 595 kts 71°
2026-05-05 23:41 38.23179 145.11962 33310 ft 592 kts 71°
2026-05-05 23:42 38.25709 145.21919 33318 ft 591 kts 71°
2026-05-05 23:42 38.28178 145.31907 33319 ft 593 kts 72°
2026-05-05 23:43 38.30704 145.41952 33315 ft 597 kts 71°
2026-05-05 23:43 38.34064 145.51527 33317 ft 588 kts 52°
2026-05-05 23:44 38.36586 145.55562 33324 ft 577 kts 40°
2026-05-05 23:44 38.39394 145.59190 33322 ft 573 kts 38°
2026-05-05 23:44 38.45191 145.66108 33314 ft 569 kts 36°
2026-05-05 23:45 38.51042 145.72897 33313 ft 568 kts 36°
2026-05-05 23:45 38.56875 145.79721 33325 ft 568 kts 35°
2026-05-05 23:46 38.62650 145.86496 33310 ft 567 kts 37°
2026-05-05 23:46 38.68411 145.93393 33314 ft 568 kts 37°
2026-05-05 23:47 38.74188 146.00340 33315 ft 563 kts 37°
2026-05-05 23:47 38.79857 146.07128 33313 ft 560 kts 37°
2026-05-05 23:48 38.85543 146.13927 33314 ft 559 kts 37°
2026-05-05 23:48 38.91221 146.20735 33308 ft 559 kts 37°
2026-05-05 23:49 38.96894 146.27559 33311 ft 559 kts 37°
2026-05-05 23:49 39.02563 146.34397 33310 ft 558 kts 38°
2026-05-05 23:50 39.08188 146.41204 33308 ft 553 kts 38°
2026-05-05 23:50 39.13789 146.47992 33308 ft 553 kts 38°
2026-05-05 23:51 39.19396 146.54802 33305 ft 553 kts 38°
2026-05-05 23:51 39.24990 146.61611 33305 ft 553 kts 38°
2026-05-05 23:52 39.30586 146.68439 33303 ft 553 kts 38°
2026-05-05 23:52 39.36171 146.75269 33303 ft 552 kts 38°
2026-05-05 23:53 39.41727 146.82083 33295 ft 550 kts 38°
2026-05-05 23:53 39.47273 146.88896 33298 ft 549 kts 38°
2026-05-05 23:54 39.52806 146.95710 33292 ft 549 kts 39°
2026-05-05 23:54 39.58332 147.02531 33292 ft 549 kts 39°
2026-05-05 23:55 39.63859 147.09369 33306 ft 549 kts 39°
2026-05-05 23:55 39.69365 147.16198 33290 ft 546 kts 39°
2026-05-05 23:56 39.74810 147.22968 33296 ft 545 kts 39°
2026-05-05 23:56 39.80288 147.29793 33287 ft 545 kts 39°
2026-05-05 23:57 39.85762 147.36627 33292 ft 545 kts 39°
2026-05-05 23:57 39.91221 147.43462 33284 ft 543 kts 39°
2026-05-05 23:58 39.96662 147.50288 33301 ft 542 kts 39°
2026-05-05 23:58 40.02034 147.57122 33287 ft 538 kts 39°
2026-05-05 23:59 40.07415 147.63897 33277 ft 537 kts 39°
2026-05-05 23:59 40.12805 147.70658 33268 ft 537 kts 39°
2026-05-06 00:00 40.18178 147.77438 33283 ft 537 kts 39°
2026-05-06 00:00 40.23542 147.84244 33279 ft 537 kts 40°
2026-05-06 00:01 40.28899 147.91062 33282 ft 535 kts 40°
2026-05-06 00:01 40.34215 147.97842 33266 ft 532 kts 41°
2026-05-06 00:02 40.39503 148.04625 33266 ft 532 kts 40°
2026-05-06 00:02 40.44799 148.11396 33270 ft 532 kts 40°
2026-05-06 00:03 40.50088 148.18180 33268 ft 531 kts 40°
2026-05-06 00:03 40.55364 148.24968 33263 ft 531 kts 40°
2026-05-06 00:04 40.60635 148.31768 33265 ft 531 kts 40°
2026-05-06 00:04 40.65900 148.38577 33257 ft 530 kts 40°
2026-05-06 00:05 40.73790 148.48809 33254 ft 531 kts 40°
2026-05-06 00:06 40.79035 148.55634 33246 ft 529 kts 40°
2026-05-06 00:06 40.84266 148.62454 33247 ft 528 kts 41°
2026-05-06 00:07 40.89490 148.69280 33257 ft 528 kts 41°
2026-05-06 00:07 40.94703 148.76110 33243 ft 526 kts 40°
2026-05-06 00:08 40.99896 148.82928 33241 ft 526 kts 40°
2026-05-06 00:08 41.05087 148.89759 33233 ft 526 kts 41°
2026-05-06 00:09 41.10238 148.96554 33233 ft 526 kts 41°
2026-05-06 00:09 41.15421 149.03412 33227 ft 526 kts 41°
2026-05-06 00:10 41.20598 149.10281 33254 ft 526 kts 41°
2026-05-06 00:10 41.25766 149.17154 33232 ft 525 kts 41°
2026-05-06 00:11 41.30926 149.24029 33213 ft 525 kts 41°
2026-05-06 00:11 41.36080 149.30914 33234 ft 525 kts 41°
2026-05-06 00:12 41.41230 149.37811 33207 ft 526 kts 41°
2026-05-06 00:12 41.46383 149.44729 33207 ft 526 kts 41°
2026-05-06 00:13 41.51532 149.51656 33207 ft 526 kts 41°
2026-05-06 00:13 41.56677 149.58597 33207 ft 526 kts 41°
2026-05-06 00:14 41.61820 149.65551 33205 ft 526 kts 41°
2026-05-06 00:14 41.66966 149.72526 33206 ft 527 kts 41°
2026-05-06 00:15 41.72105 149.79507 33199 ft 527 kts 41°
2026-05-06 00:15 41.77242 149.86504 33200 ft 527 kts 41°
2026-05-06 00:16 41.82375 149.93511 33200 ft 527 kts 41°
2026-05-06 00:16 41.87503 150.00530 33188 ft 527 kts 41°
2026-05-06 00:17 41.92631 150.07565 33187 ft 527 kts 41°
2026-05-06 00:17 41.97755 150.14611 33197 ft 527 kts 41°
2026-05-06 00:18 42.02876 150.21672 33179 ft 527 kts 41°
2026-05-06 00:18 42.07992 150.28742 33169 ft 527 kts 41°
2026-05-06 00:19 42.13106 150.35827 33169 ft 527 kts 41°
2026-05-06 00:19 42.18214 150.42920 33173 ft 528 kts 41°
2026-05-06 00:20 42.23321 150.50031 33158 ft 528 kts 41°
2026-05-06 00:20 42.28440 150.57175 33157 ft 529 kts 41°